Location: Saint Peter Port
(49.4500°N, 2.5330°W)
Time: 12:10:36
(UTC+01:00)

Envisat - Visible Passes

Search period start: 17 October 2019 00:00
Search period end: 27 October 2019 00:00
Orbit: 764 x 766 km, 98.1° (Epoch: 17 October)

Date Brightness Start Highest point End Pass type
(mag) Time Alt. Az. Time Alt. Az. Time Alt. Az.
17 Oct 3.0 18:44:06 10° SSE 18:49:06 61° ENE 18:54:08 10° N visible
17 Oct 5.6 20:24:46 10° SW 20:28:33 21° W 20:32:22 10° NW visible
18 Oct 6.2 06:49:55 10° NE 06:52:55 16° E 06:55:55 10° ESE visible
18 Oct 4.4 19:46:41 10° SSW 19:51:28 41° W 19:56:17 10° NNW visible
19 Oct 3.1 19:09:29 10° SSE 19:14:34 83° WSW 19:19:42 10° NNW visible
19 Oct 6.1 20:52:16 10° WSW 20:54:24 13° W 20:56:34 10° WNW visible
20 Oct 3.2 18:33:00 10° SE 18:37:53 50° ENE 18:42:48 10° N visible
20 Oct 5.3 20:13:00 10° SSW 20:17:10 25° W 20:21:23 10° NW visible
21 Oct 6.4 06:39:22 10° ENE 06:41:29 12° E 06:43:36 10° ESE visible
21 Oct 3.9 19:35:13 10° S 19:40:09 51° W 19:45:07 10° NNW visible
22 Oct 3.0 18:58:14 10° SSE 19:03:19 81° ENE 19:08:26 10° NNW visible
22 Oct 5.9 20:39:58 10° SW 20:42:59 16° W 20:46:01 10° NW visible
23 Oct 6.0 07:03:33 10° NE 07:07:22 21° E 07:11:08 10° SE visible
23 Oct 4.9 20:01:20 10° SSW 20:05:49 31° W 20:10:20 10° NNW visible
24 Oct 3.5 19:23:49 10° S 19:28:51 63° W 19:33:55 10° NNW visible
25 Oct 3.0 18:47:02 10° SSE 18:52:04 66° ENE 18:57:08 10° N visible
25 Oct 5.7 20:27:58 10° SW 20:31:35 19° W 20:35:12 10° NW visible
26 Oct 6.1 06:52:41 10° NE 06:55:57 17° E 06:59:12 10° SE visible
26 Oct 4.5 19:49:45 10° SSW 19:54:28 38° W 19:59:13 10° NNW visible
